Preview of NWS' New Version of Forecast
This preview is not operational and should not be used for support decisions.

Terminal Aerodrome Forecast (TAF)

Issued by National Weather Service (NWS)

                            
000
FTUS46 KSEW 192320
TAFBLI
TAF
KBLI 192320Z 2000/2024 18005KT P6SM SKC
     FM200500 17004KT P6SM SCT250=